Location: Unspecified
(0.0000°N, 0.0000°E)
Time: 23:55:55
(UTC+00:00)

Vanguard 2 - Pass Details

Date: 07 October 2020
Orbit: 554 x 2937 km, 32.9° (Epoch: 28 October)

Event Time Altitude Azimuth Distance (km) Brightness Sun altitude
Rises 09:21:14 0° 324° (NW) 2,854 10.2 53.0°
Reaches altitude 10° 09:23:56 10° 339° (NNW) 1,847 9.4 53.7°
Maximum altitude 09:27:11 23° 34° (NE) 1,183 9.1 54.5°
Drops below altitude 10° 09:30:30 10° 89° (E) 1,899 10.3 55.3°
Sets 09:33:19 0° 104° (ESE) 2,958 11.1 56.0°
